| time (UTC) | temp C | wind direction | speed KPH | gust KPH | rain 1hr cm | rain 24hr cm | rain mn cm | humidity % | barometer mb |
| 20260502233016 | 7 | 266 | 1.6 | 4.8 | 0.00 | 0.05 | 0.00 | 48 | 1016.5 |
| 20260502232016 | 7 | 300 | 1.6 | 6.4 | 0.00 | 0.05 | 0.00 | 48 | 1016.5 |
| 20260502231016 | 7 | 290 | 1.6 | 6.4 | 0.00 | 0.05 | 0.00 | 48 | 1016.5 |
| 20260502230037 | 8 | 269 | 1.6 | 6.4 | 0.00 | 0.05 | 0.00 | 48 | 1016.5 |
| 20260502225016 | 8 | 300 | 1.6 | 4.8 | 0.00 | 0.05 | 0.00 | 49 | 1016.5 |
| 20260502224016 | 8 | 292 | 1.6 | 8.0 | 0.00 | 0.05 | 0.00 | 48 | 1016.4 |
| 20260502223016 | 8 | 283 | 1.6 | 4.8 | 0.00 | 0.05 | 0.00 | 47 | 1016.4 |
| 20260502222017 | 8 | 263 | 3.2 | 11.3 | 0.00 | 0.05 | 0.00 | 46 | 1016.4 |
| 20260502221017 | 8 | 278 | 3.2 | 14.5 | 0.00 | 0.05 | 0.00 | 44 | 1016.5 |
| 20260502220016 | 8 | 280 | 1.6 | 6.4 | 0.00 | 0.05 | 0.00 | 45 | 1016.5 |
| 20260502215017 | 8 | 277 | 3.2 | 12.9 | 0.00 | 0.05 | 0.00 | 44 | 1016.4 |
| 20260502214017 | 8 | 283 | 3.2 | 11.3 | 0.00 | 0.05 | 0.00 | 44 | 1016.4 |
| 20260502213018 | 8 | 278 | 1.6 | 11.3 | 0.00 | 0.05 | 0.00 | 46 | 1016.4 |
| 20260502212018 | 8 | 284 | 3.2 | 12.9 | 0.00 | 0.05 | 0.00 | 45 | 1016.3 |
| 20260502211018 | 8 | 291 | 3.2 | 9.7 | 0.00 | 0.05 | 0.00 | 44 | 1016.4 |
| 20260502210015 | 9 | 281 | 3.2 | 6.4 | 0.00 | 0.05 | 0.00 | 43 | 1016.3 |
| 20260502205035 | 9 | 279 | 3.2 | 12.9 | 0.00 | 0.05 | 0.00 | 44 | 1016.3 |
| 20260502204035 | 9 | 277 | 3.2 | 8.0 | 0.00 | 0.05 | 0.00 | 46 | 1016.4 |
| 20260502203016 | 10 | 291 | 3.2 | 11.3 | 0.00 | 0.05 | 0.00 | 44 | 1016.8 |
| 20260502202015 | 10 | 247 | 1.6 | 4.8 | 0.00 | 0.05 | 0.00 | 45 | 1016.6 |
| 20260502201016 | 9 | 257 | 1.6 | 4.8 | 0.00 | 0.05 | 0.00 | 44 | 1016.5 |
| 20260502200016 | 9 | 281 | 4.8 | 14.5 | 0.00 | 0.05 | 0.00 | 44 | 1017.2 |
| 20260502195016 | 9 | 283 | 1.6 | 11.3 | 0.00 | 0.05 | 0.00 | 46 | 1016.6 |
| 20260502194036 | 10 | 277 | 3.2 | 11.3 | 0.00 | 0.05 | 0.00 | 44 | 1016.5 |
| 20260502193016 | 10 | 214 | 1.6 | 8.0 | 0.00 | 0.05 | 0.00 | 43 | 1017.3 |
| 20260502192017 | 10 | 265 | 3.2 | 12.9 | 0.00 | 0.05 | 0.00 | 46 | 1017.2 |
| 20260502191017 | 9 | 288 | 1.6 | 8.0 | 0.00 | 0.05 | 0.00 | 46 | 1017.4 |
| 20260502190017 | 8 | 294 | 3.2 | 12.9 | 0.00 | 0.05 | 0.00 | 48 | 1017.0 |
| 20260502185017 | 9 | 288 | 4.8 | 14.5 | 0.00 | 0.05 | 0.00 | 47 | 1017.3 |
| 20260502184015 | 9 | 279 | 3.2 | 11.3 | 0.00 | 0.05 | 0.00 | 48 | 1016.9 |
| 20260502183016 | 8 | 292 | 3.2 | 14.5 | 0.00 | 0.05 | 0.00 | 46 | 1017.3 |
| 20260502182016 | 9 | 283 | 4.8 | 12.9 | 0.00 | 0.05 | 0.00 | 46 | 1016.7 |
| 20260502181016 | 10 | 280 | 4.8 | 14.5 | 0.00 | 0.05 | 0.00 | 46 | 1017.6 |
| 20260502164016 | 8 | 279 | 4.8 | 16.1 | 0.00 | 0.05 | 0.00 | 49 | 1017.7 |
| 20260502163017 | 8 | 286 | 1.6 | 8.0 | 0.00 | 0.05 | 0.00 | 48 | 1017.7 |
| 20260502162016 | 8 | 283 | 3.2 | 11.3 | 0.00 | 0.05 | 0.00 | 52 | 1017.2 |
| 20260502161037 | 8 | 281 | 3.2 | 11.3 | 0.00 | 0.08 | 0.00 | 51 | 1018.5 |
| 20260502152018 | 8 | 271 | 1.6 | 8.0 | 0.00 | 0.15 | 0.00 | 55 | 1018.6 |
| 20260502151018 | 7 | 280 | 4.8 | 12.9 | 0.00 | 0.18 | 0.00 | 57 | 1018.0 |
| 20260502123017 | 3 | 276 | 1.6 | 6.4 | 0.00 | 0.36 | 0.00 | 79 | 1017.9 |
| 20260502122017 | 2 | 286 | 1.6 | 4.8 | 0.00 | 0.38 | 0.00 | 82 | 1017.5 |
| 20260502121018 | 2 | 300 | 3.2 | 8.0 | 0.00 | 0.38 | 0.00 | 85 | 1016.8 |
| 20260502115017 | 1 | 291 | 1.6 | 8.0 | 0.00 | 0.38 | 0.00 | 90 | 1016.6 |
| 20260502114018 | 1 | 296 | 0.0 | 1.6 | 0.00 | 0.38 | 0.00 | 91 | 1016.4 |
| 20260502113015 | 0 | 262 | 0.0 | 6.4 | 0.00 | 0.38 | 0.00 | 91 | 1016.1 |
| 20260502112018 | 0 | 232 | 0.0 | 1.6 | 0.00 | 0.38 | 0.00 | 91 | 1016.0 |
| 20260502111016 | 0 | 262 | 0.0 | 3.2 | 0.00 | 0.38 | 0.00 | 91 | 1015.8 |
| 20260502110016 | 0 | 256 | 0.0 | 3.2 | 0.00 | 0.38 | 0.00 | 91 | 1016.0 |
| 20260502105017 | 0 | 274 | 1.6 | 4.8 | 0.00 | 0.38 | 0.00 | 92 | 1015.9 |
| 20260502104016 | 0 | 273 | 1.6 | 4.8 | 0.00 | 0.38 | 0.00 | 93 | 1015.9 |
| 20260502103017 | 0 | 281 | 0.0 | 3.2 | 0.00 | 0.38 | 0.00 | 93 | 1015.9 |
| 20260502102017 | 0 | 261 | 0.0 | 6.4 | 0.00 | 0.38 | 0.00 | 93 | 1015.9 |
| 20260502101017 | 1 | 233 | 0.0 | 1.6 | 0.00 | 0.38 | 0.00 | 94 | 1015.9 |
| 20260502091016 | 1 | 244 | 0.0 | 3.2 | 0.00 | 0.38 | 0.00 | 97 | 1015.8 |
| 20260502071017 | 1 | 268 | 0.0 | 3.2 | 0.00 | 0.38 | 0.00 | 97 | 1015.7 |
| 20260502070017 | 1 | 227 | 0.0 | 1.6 | 0.00 | 0.38 | 0.00 | 97 | 1015.7 |
| 20260502065057 | 1 | 204 | 0.0 | 1.6 | 0.00 | 0.38 | 0.00 | 97 | 1015.7 |
| 20260502064037 | 1 | 208 | 0.0 | 1.6 | 0.00 | 0.38 | 0.00 | 97 | 1015.9 |
| 20260502063017 | 2 | 0.0 | 0.0 | 0.00 | 0.38 | 0.00 | 97 | 1015.9 | |
| 20260502062018 | 2 | 0.0 | 0.0 | 0.00 | 0.38 | 0.00 | 97 | 1015.9 | |
| 20260502061058 | 2 | 198 | 0.0 | 1.6 | 0.00 | 0.38 | 0.00 | 97 | 1016.0 |
| 20260502060018 | 2 | 190 | 0.0 | 1.6 | 0.00 | 0.38 | 0.00 | 97 | 1016.0 |
| 20260502055018 | 2 | 225 | 0.0 | 3.2 | 0.00 | 0.38 | 0.00 | 96 | 1016.0 |
| 20260502054018 | 2 | 224 | 0.0 | 0.0 | 0.00 | 0.38 | 0.00 | 96 | 1016.1 |
| 20260502053036 | 2 | 179 | 0.0 | 1.6 | 0.00 | 0.38 | 0.00 | 96 | 1016.3 |
| 20260502052016 | 2 | 187 | 0.0 | 3.2 | 0.00 | 0.38 | 0.00 | 97 | 1016.3 |
| 20260502051036 | 3 | 190 | 0.0 | 1.6 | 0.00 | 0.38 | 0.00 | 96 | 1016.2 |
| 20260502050015 | 3 | 218 | 0.0 | 1.6 | 0.00 | 0.38 | 0.00 | 96 | 1016.2 |
| 20260502045036 | 3 | 222 | 0.0 | 1.6 | 0.00 | 0.38 | 0.00 | 96 | 1016.2 |
| 20260502044036 | 3 | 263 | 0.0 | 0.0 | 0.00 | 0.38 | 0.00 | 96 | 1016.3 |
| 20260502043016 | 3 | 0.0 | 0.0 | 0.00 | 0.38 | 0.00 | 96 | 1016.1 | |
| 20260502042016 | 3 | 209 | 0.0 | 1.6 | 0.00 | 0.38 | 0.00 | 96 | 1016.3 |
| 20260502041017 | 3 | 183 | 0.0 | 1.6 | 0.00 | 0.38 | 0.00 | 95 | 1016.2 |
| 20260502040037 | 3 | 250 | 0.0 | 1.6 | 0.00 | 0.38 | 0.00 | 95 | 1016.1 |
| 20260502035017 | 3 | 0.0 | 0.0 | 0.00 | 0.38 | 0.38 | 95 | 1016.0 | |
| 20260502034017 | 3 | 272 | 0.0 | 1.6 | 0.00 | 0.38 | 0.38 | 95 | 1016.1 |
| 20260502033037 | 3 | 266 | 0.0 | 1.6 | 0.00 | 0.38 | 0.38 | 95 | 1016.0 |
| 20260502032037 | 3 | 203 | 0.0 | 1.6 | 0.00 | 0.38 | 0.38 | 94 | 1016.1 |
| 20260502031017 | 3 | 0.0 | 0.0 | 0.00 | 0.38 | 0.38 | 94 | 1016.1 | |
| 20260502030038 | 3 | 216 | 0.0 | 1.6 | 0.00 | 0.38 | 0.38 | 94 | 1016.2 |
| 20260502025018 | 3 | 196 | 0.0 | 1.6 | 0.00 | 0.38 | 0.38 | 93 | 1016.0 |
| 20260502024018 | 4 | 0.0 | 0.0 | 0.00 | 0.38 | 0.38 | 93 | 1016.2 | |
| 20260502023059 | 4 | 249 | 0.0 | 1.6 | 0.00 | 0.38 | 0.38 | 93 | 1016.1 |
| 20260502022015 | 4 | 270 | 0.0 | 0.0 | 0.00 | 0.38 | 0.38 | 92 | 1015.9 |
| 20260502021015 | 4 | 0.0 | 0.0 | 0.00 | 0.38 | 0.38 | 91 | 1015.6 | |
| 20260502020056 | 5 | 262 | 0.0 | 0.0 | 0.05 | 0.38 | 0.38 | 90 | 1015.5 |
| 20260502015016 | 5 | 0.0 | 0.0 | 0.05 | 0.38 | 0.38 | 89 | 1015.1 | |
| 20260502014016 | 5 | 284 | 0.0 | 1.6 | 0.05 | 0.38 | 0.38 | 88 | 1015.2 |
| 20260502013016 | 6 | 191 | 0.0 | 1.6 | 0.05 | 0.38 | 0.38 | 87 | 1015.1 |
| 20260502012016 | 6 | 188 | 0.0 | 1.6 | 0.05 | 0.38 | 0.38 | 86 | 1015.1 |
| 20260502011017 | 7 | 265 | 1.6 | 6.4 | 0.05 | 0.38 | 0.38 | 81 | 1015.1 |
| 20260502010017 | 8 | 292 | 1.6 | 9.7 | 0.00 | 0.33 | 0.33 | 71 | 1015.2 |
| 20260502005017 | 8 | 265 | 0.0 | 1.6 | 0.00 | 0.30 | 0.30 | 72 | 1014.9 |
| 20260502004017 | 8 | 274 | 0.0 | 3.2 | 0.00 | 0.30 | 0.30 | 72 | 1014.9 |
| 20260502003017 | 8 | 272 | 0.0 | 3.2 | 0.00 | 0.30 | 0.30 | 74 | 1014.7 |
| 20260502002017 | 8 | 227 | 0.0 | 3.2 | 0.00 | 0.30 | 0.30 | 73 | 1014.9 |
| 20260502001037 | 8 | 258 | 0.0 | 1.6 | 0.00 | 0.30 | 0.30 | 72 | 1015.0 |
| 20260502000018 | 8 | 215 | 0.0 | 1.6 | 0.00 | 0.30 | 0.30 | 71 | 1014.6 |
| 20260501235018 | 8 | 287 | 0.0 | 4.8 | 0.00 | 0.30 | 0.30 | 69 | 1014.4 |
| 20260501234018 | 8 | 274 | 0.0 | 3.2 | 0.00 | 0.30 | 0.30 | 68 | 1014.3 |